Weather History for KIDP - September, 2012

Change the Weather History Date:

Friday, September 7, 2012

  Actual Average (KCFV) Record (KCFV)
Temperature  
Mean Temperature 76 °F -  
Max Temperature 93 °F 86 °F 105 °F (1998)
Min Temperature 60 °F 60 °F 48 °F (2011)
Cooling Degree Days 12    
Growing Degree Days 26 (Base 50)    
Moisture  
Dew Point 62 °F    
Average Humidity 70    
Maximum Humidity 100    
Minimum Humidity 36    
Precipitation  
Precipitation 0.00 in - - ()
Sea Level Pressure  
Sea Level Pressure 29.88 in    
Wind  
Wind Speed 9 mph (NNE)    
Max Wind Speed 48 mph    
Max Gust Speed 64 mph    
Visibility 10 miles    
Events Rain , Thunderstorm    
Averages and records for this station are not official NWS values.
T = Trace of Precipitation, MM = Missing Value Source: NWS Daily Summary

Daily Weather History Graph

Daily Weather History Graph

Search for Another Location

Airport or City:

Trip Planner

Search our weather history database for the weather conditions in past years. The results will help you decide how hot, cold, wet, or windy it might be!

Date:

Astronomy

Sep. 07, 2012 Rise Set
Actual Time 6:59 AM CDT 7:42 PM CDT
Civil Twilight 6:32 AM CDT 8:08 PM CDT
Nautical Twilight 6:01 AM CDT 8:39 PM CDT
Astronomical Twilight 5:29 AM CDT 9:11 PM CDT
Moon 11:48 PM CDT (9/7) 1:42 PM CDT (9/7)
Length of Visible Light 13h 35m
Length of Day
12h 43m
Waning Gibbous, 58% of the Moon is Illuminated
Sep 7
Waning Gibbous
Sep 8
Last Quarter
Sep 15
New
Sep 22
First Quarter
Sep 29
Full

Hourly Weather History & Observations

Time (CDT) Temp. Heat Index Dew Point Humidity Pressure Visibility Wind Dir Wind Speed Gust Speed Precip Events Conditions
12:15 AM 78.8 °F - 62.6 °F 57% 29.86 in 10.0 mi SSE 9.2 mph - N/A   Clear
12:35 AM 77.0 °F - 62.6 °F 61% 29.86 in 10.0 mi South 4.6 mph - N/A   Clear
12:55 AM 77.0 °F - 64.4 °F 65% 29.86 in 10.0 mi SSW 6.9 mph - N/A   Clear
1:15 AM 77.0 °F - 64.4 °F 65% 29.86 in 10.0 mi South 5.8 mph - N/A   Clear
1:35 AM 75.2 °F - 64.4 °F 69% 29.86 in 10.0 mi South 6.9 mph - N/A   Clear
1:55 AM 77.0 °F - 62.6 °F 61% 29.86 in 10.0 mi South 6.9 mph - N/A   Clear
2:15 AM 77.0 °F - 62.6 °F 61% 29.86 in 10.0 mi South 8.1 mph - N/A   Clear
2:35 AM 77.0 °F - 62.6 °F 61% 29.85 in 10.0 mi South 10.4 mph - N/A   Clear
2:55 AM 77.0 °F - 62.6 °F 61% 29.85 in 10.0 mi South 10.4 mph - N/A   Clear
3:15 AM 77.0 °F - 62.6 °F 61% 29.85 in 10.0 mi South 6.9 mph - N/A   Clear
3:35 AM 77.0 °F - 62.6 °F 61% 29.83 in 10.0 mi South 11.5 mph - N/A   Clear
3:55 AM 77.0 °F - 62.6 °F 61% 29.82 in 10.0 mi South 10.4 mph - N/A   Clear
4:15 AM 77.0 °F - 62.6 °F 61% 29.80 in 10.0 mi South 10.4 mph - N/A   Clear
4:35 AM 77.0 °F - 60.8 °F 57% 29.82 in 10.0 mi South 3.5 mph - N/A   Clear
4:55 AM 75.2 °F - 62.6 °F 65% 29.84 in 10.0 mi NE 6.9 mph - N/A   Clear
5:15 AM 73.4 °F - 62.6 °F 69% 29.85 in 10.0 mi NNW 3.5 mph - N/A   Clear
5:35 AM 73.4 °F - 62.6 °F 69% 29.86 in 10.0 mi Calm Calm - N/A   Clear
5:55 AM 73.4 °F - 62.6 °F 69% 29.86 in 10.0 mi Calm Calm - N/A   Clear
6:15 AM 71.6 °F - 62.6 °F 73% 29.85 in 10.0 mi SSE 10.4 mph - N/A   Clear
6:35 AM 73.4 °F - 62.6 °F 69% 29.82 in 10.0 mi SE 8.1 mph - N/A   Clear
6:55 AM 73.4 °F - 62.6 °F 69% 29.82 in 10.0 mi SSE 9.2 mph - N/A   Clear
7:15 AM 73.4 °F - 62.6 °F 69% 29.84 in 10.0 mi SSW 5.8 mph - N/A   Clear
7:35 AM 73.4 °F - 62.6 °F 69% 29.85 in 10.0 mi South 5.8 mph - N/A   Clear
7:55 AM 75.2 °F - 62.6 °F 65% 29.85 in 10.0 mi Calm Calm - N/A   Clear
8:15 AM 77.0 °F - 64.4 °F 65% 29.85 in 10.0 mi South 4.6 mph - N/A   Clear
8:35 AM 77.0 °F - 64.4 °F 65% 29.85 in 10.0 mi South 6.9 mph - N/A   Clear
8:55 AM 78.8 °F - 64.4 °F 61% 29.85 in 10.0 mi South 5.8 mph - N/A   Clear
9:15 AM 78.8 °F - 64.4 °F 61% 29.86 in 10.0 mi South 5.8 mph - N/A   Clear
9:35 AM 80.6 °F 82.3 °F 64.4 °F 58% 29.86 in 10.0 mi SSW 5.8 mph - N/A   Scattered Clouds
9:55 AM 80.6 °F 82.3 °F 64.4 °F 58% 29.85 in 10.0 mi South 5.8 mph - N/A   Scattered Clouds
10:15 AM 82.4 °F 83.9 °F 64.4 °F 54% 29.86 in 10.0 mi Calm Calm - N/A   Clear
10:35 AM 82.4 °F 83.9 °F 64.4 °F 54% 29.86 in 10.0 mi NNW 5.8 mph - N/A   Scattered Clouds
10:55 AM 82.4 °F 83.9 °F 64.4 °F 54% 29.85 in 10.0 mi SW 3.5 mph - N/A   Clear
11:15 AM 86.0 °F 87.3 °F 64.4 °F 48% 29.85 in 10.0 mi Calm Calm - N/A   Clear
11:35 AM 86.0 °F 87.3 °F 64.4 °F 48% 29.84 in 10.0 mi North 3.5 mph - N/A   Clear
11:55 AM 87.8 °F 89.4 °F 64.4 °F 46% 29.83 in 10.0 mi ESE 3.5 mph - N/A   Clear
12:15 PM 87.8 °F 89.4 °F 64.4 °F 46% 29.82 in 10.0 mi NNE 4.6 mph - N/A   Clear
12:35 PM 87.8 °F 89.4 °F 64.4 °F 46% 29.80 in 10.0 mi North 5.8 mph - N/A   Clear
12:55 PM 87.8 °F 89.4 °F 64.4 °F 46% 29.79 in 10.0 mi NNE 3.5 mph - N/A   Clear
1:15 PM 89.6 °F 91.1 °F 64.4 °F 43% 29.78 in 10.0 mi Calm Calm - N/A   Clear
1:35 PM 89.6 °F 91.1 °F 64.4 °F 43% 29.78 in 10.0 mi ENE 3.5 mph - N/A   Clear
1:55 PM 89.6 °F 90.1 °F 62.6 °F 40% 29.79 in 10.0 mi Calm Calm - N/A   Scattered Clouds
2:15 PM 91.4 °F 92.1 °F 62.6 °F 38% 29.78 in 10.0 mi North 8.1 mph - N/A   Scattered Clouds
2:35 PM 93.2 °F 94.1 °F 62.6 °F 36% 29.76 in 10.0 mi NNE 8.1 mph - N/A   Scattered Clouds
2:55 PM 86.0 °F 88.2 °F 66.2 °F 51% 29.89 in 7.0 mi WNW 48.3 mph 64.4 mph N/A Rain , Thunderstorm Heavy Thunderstorms and Rain
3:15 PM 64.4 °F - 64.4 °F 100% 29.86 in 0.5 mi NNW 33.4 mph 40.3 mph N/A Rain , Thunderstorm Light Thunderstorms and Rain
3:35 PM 64.4 °F - 64.4 °F 100% 29.86 in 10.0 mi North 38.0 mph 48.3 mph N/A   Scattered Clouds
3:55 PM 66.2 °F - 64.4 °F 94% 29.87 in 10.0 mi NNW 31.1 mph 51.8 mph N/A   Scattered Clouds
4:15 PM 66.2 °F - 64.4 °F 94% 29.86 in 10.0 mi North 35.7 mph 49.5 mph N/A   Scattered Clouds
4:55 PM 62.6 °F - 59.0 °F 88% 29.89 in 2.0 mi North 24.2 mph 38.0 mph N/A Rain , Thunderstorm Heavy Thunderstorms and Rain
5:15 PM 62.6 °F - 60.8 °F 94% 29.91 in 10.0 mi NNE 13.8 mph - N/A Rain Light Rain
5:35 PM 62.6 °F - 60.8 °F 94% 29.92 in 10.0 mi North 20.7 mph 28.8 mph N/A Rain Light Rain
5:55 PM 60.8 °F - 60.8 °F 100% 29.93 in 10.0 mi North 18.4 mph 25.3 mph N/A Rain , Thunderstorm Light Thunderstorms and Rain
6:15 PM 60.8 °F - 60.8 °F 100% 29.93 in 7.0 mi North 15.0 mph - N/A Rain Rain
6:35 PM 60.8 °F - 60.8 °F 100% 29.94 in 10.0 mi North 17.3 mph 21.9 mph N/A Rain Light Rain
6:55 PM 60.8 °F - 60.8 °F 100% 29.95 in 10.0 mi North 13.8 mph - N/A Rain Light Rain
7:15 PM 60.8 °F - 60.8 °F 100% 29.95 in 10.0 mi North 15.0 mph - N/A   Overcast
7:35 PM 62.6 °F - 60.8 °F 94% 29.97 in 10.0 mi North 15.0 mph - N/A   Mostly Cloudy
7:55 PM 62.6 °F - 60.8 °F 94% 29.98 in 10.0 mi North 13.8 mph 20.7 mph N/A   Overcast
8:15 PM 62.6 °F - 60.8 °F 94% 29.99 in 10.0 mi North 11.5 mph - N/A   Overcast
8:35 PM 62.6 °F - 60.8 °F 94% 30.00 in 10.0 mi NNW 12.7 mph - N/A   Mostly Cloudy
8:55 PM 62.6 °F - 60.8 °F 94% 30.01 in 10.0 mi North 9.2 mph - N/A   Clear
9:15 PM 62.6 °F - 60.8 °F 94% 30.02 in 10.0 mi North 9.2 mph - N/A   Clear
9:35 PM 62.6 °F - 60.8 °F 94% 30.03 in 10.0 mi North 10.4 mph - N/A   Clear
9:55 PM 62.6 °F - 59.0 °F 88% 30.04 in 10.0 mi NNW 11.5 mph - N/A   Clear
10:55 PM 62.6 °F - 57.2 °F 82% 30.07 in 10.0 mi North 9.2 mph - N/A   Clear
11:35 PM 62.6 °F - 55.4 °F 77% 30.08 in 10.0 mi North 11.5 mph - N/A   Clear
11:55 PM 60.8 °F - 55.4 °F 82% 30.08 in 10.0 mi North 10.4 mph - N/A   Clear